TimeCST,TemperatureF,Dew PointF,Humidity,Sea Level PressureIn,VisibilityMPH,Wind Direction,Wind SpeedMPH,Gust SpeedMPH,PrecipitationIn,Events,Conditions,WindDirDegrees,DateUTC
12:56 AM,19.9,10.0,65,29.99,10.0,NW,11.5,-,N/A,,Overcast,310,2013-01-13 06:56:00
1:56 AM,19.0,9.0,65,29.99,10.0,WNW,8.1,-,N/A,,Clear,300,2013-01-13 07:56:00
2:56 AM,18.0,8.1,65,30.01,10.0,WNW,10.4,-,N/A,,Partly Cloudy,290,2013-01-13 08:56:00
3:56 AM,17.1,8.1,68,30.00,10.0,NNW,5.8,-,N/A,,Partly Cloudy,330,2013-01-13 09:56:00
4:56 AM,15.1,6.1,68,30.01,10.0,WNW,8.1,-,N/A,,Clear,300,2013-01-13 10:56:00
5:39 AM,15.8,5.0,62,30.02,10.0,WNW,8.1,-,N/A,,Mostly Cloudy,290,2013-01-13 11:39:00
5:52 AM,15.8,5.0,62,30.02,10.0,WNW,6.9,-,N/A,,Scattered Clouds,300,2013-01-13 11:52:00
5:56 AM,15.1,6.1,68,30.04,10.0,WNW,5.8,-,N/A,,Mostly Cloudy,300,2013-01-13 11:56:00
6:56 AM,14.0,5.0,67,30.06,10.0,West,8.1,-,N/A,,Clear,280,2013-01-13 12:56:00
7:19 AM,14.0,5.0,67,30.04,10.0,WNW,10.4,-,N/A,,Mostly Cloudy,290,2013-01-13 13:19:00
7:56 AM,12.9,3.9,67,30.09,10.0,WNW,10.4,-,N/A,,Mostly Cloudy,300,2013-01-13 13:56:00
8:47 AM,12.2,3.2,67,30.09,10.0,WNW,8.1,-,N/A,,Overcast,290,2013-01-13 14:47:00
9:56 AM,14.0,3.0,62,30.10,10.0,West,9.2,-,N/A,,Mostly Cloudy,280,2013-01-13 15:56:00
10:29 AM,14.0,3.2,62,30.05,9.0,NW,10.4,-,N/A,,Mostly Cloudy,320,2013-01-13 16:29:00
10:56 AM,15.1,5.0,64,30.07,10.0,NW,9.2,-,N/A,,Overcast,320,2013-01-13 16:56:00
11:56 AM,16.0,5.0,62,30.06,10.0,West,6.9,-,N/A,,Scattered Clouds,260,2013-01-13 17:56:00
12:07 PM,15.8,5.0,62,30.04,10.0,WSW,6.9,-,N/A,,Mostly Cloudy,250,2013-01-13 18:07:00
12:43 PM,15.8,3.2,58,30.04,10.0,West,9.2,-,N/A,,Scattered Clouds,270,2013-01-13 18:43:00
12:56 PM,17.1,5.0,59,30.07,10.0,West,13.8,18.4,N/A,,Scattered Clouds,280,2013-01-13 18:56:00
1:11 PM,17.6,6.8,63,30.04,10.0,West,13.8,18.4,N/A,,Mostly Cloudy,270,2013-01-13 19:11:00
1:56 PM,17.1,5.0,59,30.05,10.0,West,15.0,21.9,N/A,,Mostly Cloudy,280,2013-01-13 19:56:00
2:56 PM,17.1,5.0,59,30.06,10.0,WNW,12.7,-,N/A,,Overcast,300,2013-01-13 20:56:00
3:32 PM,15.8,3.2,58,30.07,10.0,WNW,13.8,-,N/A,,Mostly Cloudy,290,2013-01-13 21:32:00
3:56 PM,16.0,3.9,59,30.11,10.0,West,10.4,-,N/A,,Mostly Cloudy,270,2013-01-13 21:56:00
4:42 PM,14.0,3.2,62,30.11,10.0,WNW,15.0,-,N/A,,Overcast,290,2013-01-13 22:42:00
4:56 PM,14.0,3.0,62,30.14,10.0,WNW,11.5,-,N/A,,Overcast,300,2013-01-13 22:56:00
5:56 PM,14.0,3.0,62,30.17,10.0,West,12.7,-,N/A,,Overcast,280,2013-01-13 23:56:00
6:19 PM,14.0,3.2,62,30.15,10.0,West,15.0,-,N/A,,Overcast,280,2013-01-14 00:19:00
6:56 PM,14.0,3.0,62,30.18,10.0,West,12.7,-,N/A,,Overcast,280,2013-01-14 00:56:00
7:36 PM,14.0,3.2,62,30.16,10.0,West,13.8,-,N/A,,Overcast,280,2013-01-14 01:36:00
7:56 PM,14.0,1.9,59,30.20,10.0,WNW,13.8,-,N/A,,Overcast,290,2013-01-14 01:56:00
8:56 PM,14.0,3.9,64,30.21,10.0,West,11.5,-,N/A,,Overcast,280,2013-01-14 02:56:00
9:56 PM,14.0,3.0,62,30.24,10.0,West,11.5,-,N/A,,Overcast,280,2013-01-14 03:56:00
10:56 PM,12.0,1.9,64,30.26,10.0,WNW,12.7,-,N/A,,Clear,290,2013-01-14 04:56:00
11:56 PM,10.9,1.9,67,30.26,10.0,WNW,8.1,-,N/A,,Clear,300,2013-01-14 05:56:00